• In Netherlands
  • List of Countries
  • For 7 days
  • Water Temperature
  • Satellite Maps
  • Weather Map
  • Weather Widgets
  • user-avatar
    Login

    Hourly Weather Pabna

    Today, 27 June, Tuesday

    Time Temperature Precipitation Wind Pressure Humidity
    00:00 +30°C° 0 mm 2 mps 749 mmHg 84%
    01:00 +30°C° 0 mm 3 mps 749 mmHg 85%
    02:00 +30°C° 0 mm 3 mps 749 mmHg 86%
    03:00 +30°C° 0 mm 3 mps 749 mmHg 87%
    04:00 +29°C° 0 mm 3 mps 749 mmHg 87%
    05:00 +29°C° 0 mm 3 mps 749 mmHg 88%
    06:00 +29°C° 0 mm 3 mps 749 mmHg 87%
    07:00 +31°C° 0.1 mm 3 mps 749 mmHg 81%
    08:00 +33°C° 0.1 mm 4 mps 750 mmHg 74%
    09:00 +34°C° 0.1 mm 5 mps 750 mmHg 68%
    10:00 +35°C° 0.1 mm 5 mps 749 mmHg 64%
    11:00 +36°C° 0.1 mm 5 mps 749 mmHg 60%
    12:00 +37°C° 0.1 mm 5 mps 749 mmHg 56%
    13:00 +37°C° 0.1 mm 5 mps 748 mmHg 55%
    14:00 +39°C° 0.1 mm 6 mps 748 mmHg 55%
    15:00 +39°C° 0.1 mm 6 mps 747 mmHg 54%
    16:00 +37°C° 0 mm 5 mps 747 mmHg 58%
    17:00 +36°C° 0 mm 5 mps 746 mmHg 61%
    18:00 +35°C° 0 mm 5 mps 746 mmHg 64%
    19:00 +35°C° 0 mm 4 mps 747 mmHg 67%
    20:00 +34°C° 0 mm 4 mps 747 mmHg 70%
    21:00 +33°C° 0 mm 4 mps 748 mmHg 72%
    22:00 +32°C° 0 mm 4 mps 748 mmHg 74%
    23:00 +32°C° 0 mm 4 mps 749 mmHg 76%

    Tomorrow, 28 June, Wednesday

    Time Temperature Precipitation Wind Pressure Humidity
    00:00 +30°C° 0 mm 4 mps 749 mmHg 78%
    01:00 +30°C° 0 mm 4 mps 749 mmHg 80%
    02:00 +30°C° 0 mm 4 mps 749 mmHg 82%
    03:00 +30°C° 0 mm 4 mps 749 mmHg 84%
    04:00 +30°C° 0 mm 4 mps 749 mmHg 84%
    05:00 +30°C° 0 mm 4 mps 749 mmHg 85%
    06:00 +30°C° 0 mm 4 mps 749 mmHg 86%
    07:00 +32°C° 0.1 mm 5 mps 749 mmHg 80%
    08:00 +33°C° 0.1 mm 5 mps 750 mmHg 74%
    09:00 +34°C° 0.1 mm 6 mps 750 mmHg 69%
    10:00 +35°C° 0.1 mm 6 mps 750 mmHg 65%
    11:00 +36°C° 0.1 mm 6 mps 749 mmHg 61%
    12:00 +38°C° 0.1 mm 6 mps 749 mmHg 57%
    13:00 +39°C° 0.2 mm 6 mps 748 mmHg 56%
    14:00 +39°C° 0.2 mm 6 mps 748 mmHg 55%
    15:00 +39°C° 0.2 mm 6 mps 747 mmHg 54%
    16:00 +38°C° 0.1 mm 6 mps 747 mmHg 57%
    17:00 +37°C° 0.1 mm 5 mps 747 mmHg 60%
    18:00 +36°C° 0.1 mm 5 mps 746 mmHg 63%
    19:00 +35°C° 0 mm 5 mps 747 mmHg 66%
    20:00 +34°C° 0 mm 4 mps 748 mmHg 70%
    21:00 +33°C° 0 mm 4 mps 748 mmHg 73%
    22:00 +33°C° 0 mm 4 mps 749 mmHg 74%
    23:00 +32°C° 0 mm 4 mps 749 mmHg 76%

    Day after tomorrow, 29 June, Thursday

    Time Temperature Precipitation Wind Pressure Humidity
    00:00 +32°C° 0 mm 4 mps 749 mmHg 77%
    01:00 +30°C° 0 mm 4 mps 749 mmHg 79%
    02:00 +30°C° 0 mm 3 mps 748 mmHg 81%
    03:00 +30°C° 0 mm 3 mps 748 mmHg 83%
    04:00 +30°C° 0 mm 3 mps 748 mmHg 84%
    05:00 +30°C° 0 mm 3 mps 748 mmHg 85%
    06:00 +29°C° 0 mm 3 mps 748 mmHg 86%
    07:00 +32°C° 0 mm 4 mps 749 mmHg 80%
    08:00 +33°C° 0 mm 4 mps 749 mmHg 73%
    09:00 +35°C° 0 mm 4 mps 749 mmHg 66%
    10:00 +36°C° 0.1 mm 4 mps 749 mmHg 62%
    11:00 +37°C° 0.1 mm 5 mps 749 mmHg 57%
    12:00 +39°C° 0.1 mm 5 mps 748 mmHg 52%
    13:00 +39°C° 0.2 mm 5 mps 747 mmHg 52%
    14:00 +39°C° 0.2 mm 5 mps 747 mmHg 52%
    15:00 +40°C° 0.2 mm 6 mps 746 mmHg 51%
    16:00 +39°C° 0 mm 6 mps 746 mmHg 54%
    17:00 +37°C° 0 mm 5 mps 745 mmHg 58%
    18:00 +36°C° 0 mm 5 mps 745 mmHg 61%
    19:00 +35°C° 0 mm 5 mps 746 mmHg 64%
    20:00 +34°C° 0 mm 5 mps 746 mmHg 67%
    21:00 +33°C° 0 mm 5 mps 747 mmHg 70%
    22:00 +33°C° 0 mm 5 mps 747 mmHg 72%
    23:00 +32°C° 0 mm 4 mps 747 mmHg 75%

    30 June, Friday

    Time Temperature Precipitation Wind Pressure Humidity
    00:00 +32°C° 0 mm 4 mps 748 mmHg 77%
    01:00 +30°C° 0 mm 4 mps 747 mmHg 79%
    02:00 +30°C° 0 mm 4 mps 747 mmHg 81%
    03:00 +30°C° 0 mm 3 mps 746 mmHg 83%
    04:00 +29°C° 0 mm 4 mps 746 mmHg 84%
    05:00 +29°C° 0 mm 4 mps 746 mmHg 85%
    06:00 +29°C° 0 mm 4 mps 746 mmHg 86%
    07:00 +32°C° 0 mm 4 mps 747 mmHg 80%
    08:00 +33°C° 0 mm 4 mps 747 mmHg 74%
    09:00 +34°C° 0 mm 5 mps 747 mmHg 68%
    10:00 +36°C° 0 mm 5 mps 747 mmHg 63%
    11:00 +37°C° 0 mm 5 mps 747 mmHg 59%
    12:00 +39°C° 0 mm 5 mps 746 mmHg 54%
    13:00 +39°C° 0.9 mm 5 mps 746 mmHg 54%
    14:00 +39°C° 0.9 mm 5 mps 745 mmHg 54%
    15:00 +39°C° 0.9 mm 5 mps 744 mmHg 54%
    16:00 +37°C° 0.6 mm 5 mps 744 mmHg 58%
    17:00 +36°C° 0.6 mm 5 mps 744 mmHg 62%
    18:00 +35°C° 0.6 mm 5 mps 744 mmHg 66%
    19:00 +34°C° 0 mm 5 mps 745 mmHg 69%
    20:00 +34°C° 0 mm 5 mps 746 mmHg 71%
    21:00 +33°C° 0 mm 5 mps 746 mmHg 74%
    22:00 +32°C° 0 mm 5 mps 746 mmHg 75%
    23:00 +32°C° 0 mm 5 mps 747 mmHg 76%

    1 July, Saturday

    Time Temperature Precipitation Wind Pressure Humidity
    00:00 +32°C° 0 mm 5 mps 747 mmHg 78%
    01:00 +30°C° 0 mm 5 mps 746 mmHg 79%
    02:00 +30°C° 0 mm 4 mps 746 mmHg 80%
    03:00 +30°C° 0 mm 4 mps 746 mmHg 82%
    04:00 +30°C° 0.1 mm 4 mps 746 mmHg 82%
    05:00 +30°C° 0.1 mm 5 mps 746 mmHg 83%
    06:00 +30°C° 0.1 mm 5 mps 746 mmHg 83%
    07:00 +32°C° 0.7 mm 5 mps 747 mmHg 78%
    08:00 +33°C° 0.7 mm 6 mps 747 mmHg 72%
    09:00 +35°C° 0.7 mm 6 mps 747 mmHg 67%
    10:00 +36°C° 0.6 mm 6 mps 747 mmHg 63%
    11:00 +38°C° 0.6 mm 6 mps 747 mmHg 59%
    12:00 +39°C° 0.6 mm 6 mps 746 mmHg 56%
    13:00 +39°C° 1.1 mm 6 mps 746 mmHg 56%
    14:00 +39°C° 1.1 mm 6 mps 745 mmHg 55%
    15:00 +39°C° 1.1 mm 6 mps 745 mmHg 55%
    16:00 +37°C° 1 mm 5 mps 745 mmHg 59%
    17:00 +36°C° 1 mm 5 mps 745 mmHg 63%
    18:00 +35°C° 1 mm 5 mps 745 mmHg 67%
    19:00 +34°C° 0.2 mm 5 mps 746 mmHg 70%
    20:00 +34°C° 0.2 mm 5 mps 746 mmHg 72%
    21:00 +33°C° 0.2 mm 5 mps 747 mmHg 75%
    22:00 +32°C° 0.3 mm 5 mps 747 mmHg 77%
    23:00 +32°C° 0.3 mm 5 mps 747 mmHg 79%

    2 July, Sunday

    Time Temperature Precipitation Wind Pressure Humidity
    00:00 +30°C° 0.3 mm 5 mps 747 mmHg 81%
    01:00 +30°C° 1.1 mm 5 mps 747 mmHg 82%
    02:00 +30°C° 1.1 mm 4 mps 746 mmHg 84%
    03:00 +30°C° 1.1 mm 4 mps 746 mmHg 85%
    04:00 +30°C° 0.3 mm 4 mps 746 mmHg 85%
    05:00 +30°C° 0.3 mm 4 mps 747 mmHg 85%
    06:00 +30°C° 0.3 mm 4 mps 747 mmHg 84%
    07:00 +32°C° 0.8 mm 5 mps 747 mmHg 79%
    08:00 +33°C° 0.8 mm 5 mps 747 mmHg 74%
    09:00 +35°C° 0.8 mm 5 mps 748 mmHg 69%
    10:00 +36°C° 2 mm 5 mps 747 mmHg 66%
    11:00 +36°C° 2 mm 5 mps 747 mmHg 63%
    12:00 +37°C° 2 mm 4 mps 747 mmHg 60%
    13:00 +37°C° 3.1 mm 4 mps 746 mmHg 62%
    14:00 +36°C° 3.1 mm 4 mps 746 mmHg 64%
    15:00 +36°C° 3.1 mm 3 mps 746 mmHg 66%
    16:00 +35°C° 0.7 mm 3 mps 746 mmHg 70%
    17:00 +34°C° 0.7 mm 3 mps 746 mmHg 73%
    18:00 +34°C° 0.7 mm 3 mps 746 mmHg 77%
    19:00 +33°C° 0.3 mm 4 mps 746 mmHg 78%
    20:00 +33°C° 0.3 mm 4 mps 747 mmHg 80%
    21:00 +32°C° 0.3 mm 4 mps 747 mmHg 81%
    22:00 +32°C° 0.3 mm 4 mps 747 mmHg 82%
    23:00 +30°C° 0.3 mm 5 mps 747 mmHg 83%
    Show more